This is the latest recevied weather packets stored in our database for station/object DF2AP-13. If no packets are shown the sender has not sent any weather packets the latest 10 day(s).
| Time | Temp. | Humidity | Pressure | Rain* | Wind** | Luminosity | Snow |
|---|---|---|---|---|---|---|---|
| 1777590327 | 4.44° C | 73% | 1032.3 hPa | - | - | - | - |
| 1777589728 | 4.44° C | 72% | 1032.3 hPa | - | - | - | - |
| 1777589127 | 5° C | 73% | 1032.1 hPa | - | - | - | - |
| 1777588527 | 5.56° C | 73% | 1032 hPa | - | - | - | - |
| 1777587927 | 5.56° C | 72% | 1032 hPa | - | - | - | - |
| 1777587327 | 6.11° C | 72% | 1032 hPa | - | - | - | - |
| 1777586727 | 6.11° C | 71% | 1032.1 hPa | - | - | - | - |
| 1777586127 | 6.11° C | 69% | 1032 hPa | - | - | - | - |
| 1777585527 | 6.11° C | 68% | 1032.1 hPa | - | - | - | - |
| 1777584933 | 6.11° C | 66% | 1032.1 hPa | - | - | - | - |
| 1777584327 | 6.67° C | 65% | 1032.1 hPa | - | - | - | - |
| 1777583727 | 6.67° C | 64% | 1032 hPa | - | - | - | - |
| 1777583127 | 7.22° C | 62% | 1031.9 hPa | - | - | - | - |
| 1777582527 | 7.78° C | 61% | 1031.8 hPa | - | - | - | - |
| 1777581927 | 7.78° C | 59% | 1031.7 hPa | - | - | - | - |
| 1777581328 | 8.33° C | 59% | 1031.8 hPa | - | - | - | - |
| 1777580732 | 8.33° C | 59% | 1031.7 hPa | - | - | - | - |
| 1777580127 | 8.89° C | 58% | 1031.7 hPa | - | - | - | - |
| 1777579533 | 8.89° C | 58% | 1031.7 hPa | - | - | - | - |
| 1777578927 | 8.89° C | 57% | 1031.6 hPa | - | - | - | - |
| 1777577875 | 10° C | 55% | 1031.3 hPa | - | - | - | - |
| 1777577275 | 10° C | 56% | 1031.3 hPa | - | - | - | - |
| 1777576675 | 10.56° C | 54% | 1031.2 hPa | - | - | - | - |
| 1777576075 | 10.56° C | 52% | 1031.1 hPa | - | - | - | - |
| 1777575475 | 11.11° C | 50% | 1031 hPa | - | - | - | - |
* Rain since midnight (hover to see other rain measurements)
** Current wind speed in m/s (hover to see current wind gust speed)